ATLAS 5 CENTAUR DEB, 44668

Orbit data source: Space-Track

ATLAS 5 CENTAUR DEB, 44668 is space debris in HEO originally from a launch on Wed, 17 Oct 2018 UTC launched from the Air Force Eastern Test Range (AFETR). Debris objects in space refer to the collection of defunct objects orbiting the Earth. Examples of debris include non-operational satellites, rocket bodies, and fragments generated from explosions, collisions, or faulty payload assembly.

Loading next visibility...
ATLAS 5 CENTAUR DEB details
Identifier
44668, 2018-079AE
Orbit
HEO
Last TLE update1 day ago
Origin
Flag of USULA (US)
ManufacturerULA Decatur
MissionSpacecraft
Bus & MotorUnknown
MassUnknown
Launch date (UTC)
2018-10-17 (6 years ago)
Launch vehicleUnknown
Launch site
Air Force Eastern Test Range (AFETR)
Object type
Payload
Rocket body
Debris
Shape & HBRUnknown
Radar Cross SectionRCS unknown

Expand to show TLE details & history

TLE from 1 day ago
0 ATLAS 5 CENTAUR DEB
1 44668U 18079AE  24360.08502905 -.00000076  00000-0  00000-0 0  9991
2 44668  13.0009  52.1794 4546305 286.7872  29.2589  1.97450531 40181
Epoch: 2024-12-25T02:02Z
Definitive object data (Epoch: 2024-12-25T02:02:26.509Z)
Latitude
Longitude-72.55127°
Altitude12,466.33 km
Speed5.24 km/s
True Right ascension03h 28m 34s
True Declination0° 00' 00"
Sunlit
Object was in daylight at TLE epoch
Visualization TLE readout
Latitude-0.03735°
Longitude107.46549°
Altitude18,160.46 km
Speed4.2 km/s
Apparent Right ascension16h 13m 35s
Apparent Declination-10° 04' 23"
Sunlit
Object is in daylight
Visualization observer readout
Local Sidereal Time11:03:40
Azimuth105.753° ESE
Elevation2.953°
Doppler factor1
Orbital elements
Apogee altitude32,665.535 km
Perigee altitude8,260.101 km
Semi-major axis26,840.955 km
Eccentricity0.4546305
Inclination13.0009°
RAAN52.1794°
Arg. of periapsis286.7872°
True anomaly73.1703°
Mean anomaly29.2589°
Eccentric anomaly48.88292°
Mean motion0.49357 °/min
BSTARUnknown
Orbital period729.38 mins
Loading maneuver chart data...

ATLAS 5 CENTAUR DEB Visibility forecast

Observer location: undefined°, undefined

Span
Click to sort rows by Start time (UTC) header in descending order
Start Az.
Max El. time (UTC)
Max El. Az.
Max El.
End time (UTC)
End Az.
590 mins2024-12-27 01:52:17.400Z206.316° SW2024-12-27 08:47:17.400Z108.843° ESE25.969°2024-12-27 11:42:17.400Z111.421° ESE
|